Время (UTC), дата Ветер
(°,м/с) 
Видим.   Явления Облачность Т
(°С)
Тd
(°С)
f(%) Тe
(°С)
Pmin
(гПа)
dP
(гПа)
Po
(мм)
O2
(г/м3)
Тmin Tmax R s Состояние
почвы
00 01.12.12 220 (ЮЗ) >10 км    6/0 верхняя 
[Ci fib]
+7.1 -4 45 +7  1019.5  0.3  724  285           
03 01.12.12 320 (СЗ) >10 км    10/0 средняя 
[Ac und]
+11.1 -7.6 26 +11  1019.4  0.5  724  281  +3.4        сухая 
06 01.12.12 110 (В) >10 км    6/0 средняя 
[Ac trans]
+12.8 -4.5 30 +14  1019.4  0.4  725  279           
09 01.12.12 110 (В) >10 км    3/0 верхняя 
[Ci fib]
+16.7 -4.4 23 +18  1017.8  -0.9  724  275           
12 01.12.12 100 (В) >10 км    4/0 верхняя 
[Ci fib]
+15.2 -2.8 29 +16  1016.9  -1.1  723  276           
15 01.12.12 140 (ЮВ) >10 км    4/0 средняя, верхняя 
[Ac trans|Ci fib]
+7.6 +0.1 59 +8  1018.2  0.1  723  283    +17       
18 01.12.12 180 (Ю) >10 км    10/0 средняя 
[Ac und]
+10.5 -0.9 45 +10  1016.7  -0.9  722  280           
21 01.12.12 140 (ЮВ) >10 км    4/0 средняя 
[Ac trans]
+10 -3.5 38 +9  1016.4  -0.4  722  281           
00 02.12.12 200 (Ю) >10 км    10/0 средняя 
[Ac und]
+12.2 -4.8 30 +12  1015.8  -0.2  722  279           
03 02.12.12 300 (СЗ) >10 км    8/0 средняя 
[Ac trans]
+14.8 -3.8 27 +15  1015.2  -0.1  722  276  +7.7        сухая 
06 02.12.12 300 (СЗ) >10 км    9/3 600 м средняя 
[Sc|Ac trans]
+14.8 -1.4 33 +15  1016.4  1.2  723  276           
09 02.12.12 130 (ЮВ) >10 км    9/5 600 м средняя 
[Sc|Ac trans]
+14.6 +4 49 +15  1016.6  0.2  723  276           
12 02.12.12 200 (Ю) >10 км    9/3 600 м средняя 
[Sc|Ac trans]
+14.9 +4.5 50 +16  1016.3  -0.3  723  275           
15 02.12.12 280 (З) >10 км    8/0 средняя 
[Ac trans]
+13.9 +2.2 45 +14  1017.5  0.9  723  277    +15.7       
18 02.12.12 240 (ЮЗ) >10 км    6/0 средняя 
[Ac trans]
+10.7 +4.5 66 +11  1018.3  0.2  724  280           
21 02.12.12 230 (ЮЗ) >10 км    8/0 средняя 
[Ac trans]
+10.2 +5.6 73 +11  1018  -0.4  723  280           
00 03.12.12 100 (В) >10 км    8/0 средняя 
[Ac trans]
+9.9 +5.3 73 +10  1016.4  -1.5  722  280           
03 03.12.12 120 (ЮВ) >10 км    8/0 средняя 
[Ac trans]
+8.3 +3.1 70 +7  1014.7  -1.9  721  281  +8.3        сухая 
06 03.12.12 120 (ЮВ) >10 км    8/0 средняя, верхняя 
[Ac trans|Ci fib]
+9.3 +3.2 66 +8  1012.8  -1.6  720  280           
09 03.12.12 120 (ЮВ) 8-11{11}  >10 км    8/0 верхняя 
[Ci fib]
+15.7 +2.6 41 +15  1008.1  -3.3  717  273           
12 03.12.12 120 (ЮВ) 6{13}  >10 км    9/0 средняя, верхняя 
[Ac trans|Ci fib]
+14.6 -4.2 27 +14  1004.8  -3.4  714  274           
15 03.12.12 150 (ЮВ) >10 км    10/0 средняя 
[Ac und]
+10.2 -0.2 48 +9  1003.7  -1.8  713  277    +16.6       
18 03.12.12 350 (С) >10 км    8/0 средняя 
[Ac und]
+12.1 +2.5 52 +12  1003.5  0.2  713  275           
21 03.12.12 310 (СЗ) >10 км    10/3 600 м средняя 
[Sc|Ac und]
+10.1 +5.5 73 +10  1004.3  0.5  714  276           
00 04.12.12 250 (З) >10 км    10/5 800 м кучево-дожд., средняя 
[Cb calv|Ac und]
+9.3 +7.5 89 +9  1003.5  -0.9  713  276           
03 04.12.12 250 (З) >10 км    10/5 600 м кучево-дожд., средняя 
[Cb calv|Ac und]
+8.8 +7.5 92 +9  1003.1  -0.4  713  277  +7        сухая 
06 04.12.12 270 (З) >10 км    9/6 1000 м средняя 
[Sc diur, vesp|Ac trans]
+8.9 +6.9 87 +8  1002.9  -0.2  712  277           
09 04.12.12 230 (ЮЗ) >10 км    9/4 1000 м средняя 
[Sc|Ac trans]
+10.1 +6.1 76 +11  1001.5  -1.1  712  275           
12 04.12.12 310 (СЗ) >10 км    9/5 200 м средняя 
[St|Ac trans]
+9.4 +6.2 80 +10  1001.3  -0.3  711  276           
15 04.12.12 070 (В) >10 км    8/3 1000 м средняя 
[Sc|Ac trans]
+5.9 +5 94 +5  1002.8  0.8  712  280    +10.8       
18 04.12.12 090 (В) >10 км    8/0 средняя 
[Ac trans]
+6.6 +6 96 +6  1002.9  0.2  712  279           
21 04.12.12 100 (В) 2100 м  дымка  5/0 верхняя 
[Ci fib]
+4.9 +4.5 97 +5  1003.1  712  281           
00 05.12.12 100 (В) >10 км  {туман}  8/3 600 м кучево-дожд., средняя 
[Cb calv|Ac trans]
+5.9 +5.5 97 +5  1002.8  0.1  712  280           
03 05.12.12 090 (В) 0400 м  туман  10/3 200 м средняя 
[St|Ac und]
+5.3 +5 98 +4  1004.1  1.1  713  281  +4.2         
06 05.12.12 070 (В) 0100 м  туман  ?/?  
+5.9 +5.6 98 +4  1005.9  1.8  714  281           
09 05.12.12 060 (СВ) 0100 м  слаб. морось{туман}  ?/?  
+6.4 +6.1 98 +5  1006.1  0.3  714  280           
12 05.12.12 070 (В) 0100 м  слаб. морось{туман}  ?/?  
+6.4 +6.1 98 +5  1007.2  715  280           
15 05.12.12 070 (В) 0100 м  туман{морось}  ?/?  
+5.5 +5.3 99 +3  1008.4  716  282    +6.5  0.0     
18 05.12.12 070 (В) 0100 м  туман{морось}  ?/?  
+5.2 +5 99 +4  1009.3  0.7  716  282           
21 05.12.12 090 (В) 0100 м  туман  ?/?  
+4.6 +4.4 99 +2  1009.6  0.2  717  283           
00 06.12.12 080 (В) 0100 м  туман{ливн. осадки}  ?/?  
+3.2 +2.9 98 +1  1009.8  0.1  717  285           
03 06.12.12 090 (В) 0200 м  слаб. дождь{туман}  ?/?  
+2.7 +2.4 98 +1  1009.7  -0.2  716  285  +2.5      влажная 
06 06.12.12 100 (В) 0100 м  туман{дождь}  ?/?  
+2.7 +2.5 99 +1  1010.2  0.5  717  286           
09 06.12.12 090 (В) 0100 м  туман  ?/?  
+3.5 +3.3 99 +1  1008.7  -1.3  716  284           
12 06.12.12 090 (В) 0100 м  туман  ?/?  
+3.2 +3 99 +1  1008.6  -0.2  716  284           
15 06.12.12 120 (ЮВ) 3000 м  дымка{туман}  10/10 100 м 
[St]
+3.1 +2.9 99 +1  1009.3  0.7  716  285    +4  0.0     
18 06.12.12 140 (ЮВ) 0200 м  туман  ?/?  
+2.8 +2.5 98 +1  1009.7  0.3  716  285           
21 06.12.12 120 (ЮВ) 0200 м  туман  ?/?  
+2.8 +2.6 99 +4  1009.5  -0.1  716  285           
00 07.12.12 230 (ЮЗ) >10 км  дымка{туман}  10/10 300 м 
[Frnb|As trans]
+2 +1.8 99 +1  1010.1  0.4  717  286           
03 07.12.12 240 (ЮЗ) >10 км  слаб. дождь  10/6 600 м средняя 
[Sc|Ac und]
+5.1 +4.9 99 +4  1010  0.5  717  283  +1.3    0.0     
06 07.12.12 220 (ЮЗ) >10 км  {дождь}  6/3 600 м средняя 
[Sc|Ac trans]
+5.5 +3.9 89 +5  1011.1  1.1  718  283           
09 07.12.12 300 (СЗ) >10 км  {дождь}  6/0 средняя, верхняя 
[Ac trans|Ci fib]
+9.4 +4 69 +9  1010.2  -0.2  718  279           
12 07.12.12 070 (В) >10 км    8/3 600 м верхняя 
[Sc|Ci fib]
+9.7 +4 68 +9  1010  718  279           
15 07.12.12 070 (В) >10 км    8/4 600 м верхняя 
[Sc|Ci fib]
+4.6 +2.8 88 +3  1011.8  0.7  718  284    +9.9  0.0     
18 07.12.12 100 (В) >10 км    4/0 
[]
+2.9 +2 94 +1  1012  0.1  718  286           
21 07.12.12 100 (В) >10 км    3/0 средняя 
[Ac trans]
+2.3 +1.2 92 1012  -0.2  718  287           
00 08.12.12 100 (В) >10 км    3/0 средняя 
[Ac trans]
+1.8 +0.2 89 -1  1011.8  -0.3  718  287           
03 08.12.12 130 (ЮВ) >10 км    3/0 средняя 
[Ac trans]
+0.6 +0 96 -2  1011.6  -0.4  717  288  +0.6        сухая 
06 08.12.12 170 (Ю) >10 км    10/8 360 м средняя 
[St|Ac und]
+3.9 +3.2 95 +2  1013.4  2.3  719  285           
09 08.12.12 160 (Ю) >10 км    9/5 330 м средняя 
[St|Ac trans]
+6.4 +3.4 81 +5  1014.4  1.4  720  283           
12 08.12.12 270 (З) 0900 м  туман  ?/?  
+2.6 +2.2 97 -1  1019  3.6  723  288           
15 08.12.12 280 (З) 10 км  {туман}  10/8 200 м средняя 
[St|Ac und]
+1 +0.6 97 -2  1022.4  2.9  725  291    +7       
18 08.12.12 280 (З) >10 км  {туман}  10/8 400 м средняя 
[Sc|Ac und]
+1.1 -0.8 87 -2  1024.5  1.9  727  292           
21 08.12.12 270 (З) >10 км    3/3 600 м 
[Sc]
-1.9 -2.6 95 -4  1027.4  2.1  728  296           
00 09.12.12 250 (З) >10 км    3/3 600 м 
[Sc]
-3.1 -3.5 97 -4  1028.5  0.9  729  297           
03 09.12.12 220 (ЮЗ) >10 км    3/3 600 м 
[Sc]
-5.5 -5.9 97 -7  1028.7  -0.4  729  300  -5.5        замёрзшая 
06 09.12.12 090 (В) >10 км    1/0 средняя 
[Ac trans]
-1.2 -2 94 -2  1027.7  729  295           
09 09.12.12 080 (В) >10 км    3/3 200 м 
[St]
+1.5 -2.1 77 -1  1026.8  -0.3  728  292           
12 09.12.12 090 (В) >10 км    1/0 средняя 
[Ac trans]
+1.7 -2.2 75 -1  1025.3  -1.4  727  291           
15 09.12.12 090 (В) 10 км    10/10 300 м 
[St]
-2.2 -3 94 -6  1025.6  -0.5  727  296    +2.4       
18 09.12.12 110 (В) 3000 м  дымка  10/10 100 м 
[St]
-2.7 -3.1 97 -7  1024.6  -1.1  726  296           
21 09.12.12 110 (В) 7-10{10}  3000 м  дымка  10/10 100 м 
[St]
-2.3 -2.7 97 -7  1023.6  -0.9  725  295           
00 10.12.12 110 (В) 9-12{14}  10 км    10/10 50 м 
[St]
-1 -1.7 95 -6  1022.3  -1  725  293           
03 10.12.12 120 (ЮВ) >10 км    10/10 100 м 
[St]
+0.1 -0.9 93 -4  1021.1  -0.9  724  292  -2.7        замёрзшая 
06 10.12.12 120 (ЮВ) 9-13{14}  >10 км    10/8 200 м средняя 
[St|Ac und]
+0.7 -0.6 91 -4  1020.5  -0.4  724  291           
09 10.12.12 100 (В) 12-16{17}  >10 км    10/8 300 м средняя 
[St|Ac und]
+2.2 -0.2 84 -3  1018.5  -1.6  723  289           
12 10.12.12 110 (В) 13-16{17}  >10 км    10/10 300 м 
[St]
+2.1 -0.3 84 -3  1017.9  -0.6  722  289           
15 10.12.12 100 (В) 11-17  >10 км    10/10 240 м 
[St]
+1.1 -0.2 91 -4  1017.8  -0.3  722  290           
18 10.12.12 100 (В) 12-18{18}  10 км    10/8 120 м средняя 
[St|Ac und]
+0 -0.6 96 -5  1017.5  -0.5  722  291           
21 10.12.12 100 (В) 13-18{20}  0300 м  туман  н/о 
-0.4 -0.7 98 -6  1016.4  -1.1  721  291           
00 11.12.12 100 (В) 12-17{20}  0200 м  туман{снег} [диам. гололёда 0 мм]  ?/?  
-0.5 -0.8 98 -6  1016.2  -0.2  721  291           
03 11.12.12 100 (В) 10  0200 м    ?/?  
-0.9 -1.1 99 -6        303           
06 11.12.12 100 (В) 9-15{16}  0100 м  туман  ?/?  
-1.4 -1.6 99 -6  1016.8  0.3  721  292  -1.4         
09 11.12.12 100 (В) 11-12{17}  0100 м  туман [диам. гололёда 8 мм]  ?/?  
-1.8 -2.1 98 -7  1016.6  -0.2  721  292           
12 11.12.12 100 (В) 9-12{15}  0100 м  туман [диам. гололёда 9 мм]  ?/?  
-2.8 -3.1 98 -8  1017.3  0.4  721  294           
15 11.12.12 100 (В) 10 км  слаб. снег{туман}  10/8 200 м средняя 
[Sc|Ac und]
-3.4 -3.9 96 -8  1018.8  1.3  722  295    -0.9  0.0     
18 11.12.12 080 (В) 7{11}  >10 км  {снег, туман}  10/10 240 м 
[St]
-4.9 -5.5 96 -10  1020.1  0.9  723  297           
21 11.12.12 080 (В) 7{10}  >10 км  [диам. гололёда 11 мм]  10/10 270 м 
[St]
-5.5 -6.1 96 -10  1020.3  0.1  723  298           
00 12.12.12 080 (В) >10 км  [диам. гололёда 11 мм]  10/10 270 м 
[St]
-4 -4.5 96 -8  1019.7  -0.2  722  296           
03 12.12.12 100 (В) >10 км    10/10 100 м 
[St]
-1.5 -1.8 98 -5  1020.2  0.9  723  293  -5.8    0.0    замёрзшая 
06 12.12.12 090 (В) >10 км  [диам. гололёда 11 мм]  10/10 180 м 
[St]
-0.4 -0.6 99 -3  1021.2  1.2  724  292           
09 12.12.12 100 (В) >10 км    10/10 210 м 
[St]
+1 +0.8 98 -3  1021.5  0.6  725  291           
12 12.12.12 110 (В) 7{10}  >10 км    10/10 200 м 
[St]
+2 +0.9 92 -1  1021.8  0.5  725  290           
15 12.12.12 090 (В) 7{11}  >10 км    10/10 240 м 
[St]
+0.6 +0.2 97 -3  1022.9  0.7  725  292    +2.2       
18 12.12.12 100 (В) 8-10{11}  0500 м  туман  ?/?  
+0.5 +0.2 98 -4  1022.6  -0.3  725  292           
21 12.12.12 100 (В) 8-11{12}  0300 м  туман  ?/?  
-0.2 -0.4 99 -4  1022.5  -0.3  725  292           
00 13.12.12 100 (В) 10-12  1000 м  дымка{туман}  10/10 60 м 
[St]
-0.3 -0.5 98 -5  1021.9  -0.5  725  292           
03 13.12.12 100 (В) 0200 м  туман  ?/?  
-0.1 -0.3 99 -4  1021.4  -0.4  724  292  -0.4        сухая 
06 13.12.12 110 (В) 8-11{11}  0800 м  туман [диам. гололёда 0 мм]  ?/?  
-0.3 -0.5 98 -5  1021.8  0.4  725  292           
09 13.12.12 110 (В) 9-12  10 км  {туман}  10/10 150 м 
[St]
+0.3 +0.1 99 -4  1021.8  0.1  725  292           
12 13.12.12 100 (В) 8-10  10 км  {туман}  10/10 120 м 
[St]
+0.4 -0.2 96 -4  1022.3  0.5  725  292           
15 13.12.12 100 (В) 4000 м  дымка{туман}  10/10 100 м 
[St]
-0.2 -0.4 99 -4  1023.4  0.9  726  293    +0.6       
18 13.12.12 100 (В) 9-12{12}  >10 км    10/10 240 м 
[St]
-0.7 -1.8 92 -5  1024.4  0.8  726  294           
21 13.12.12 100 (В) 9-12{13}  10 км  слаб. снег  10/10 330 м 
[Ns]
-1.9 -3.5 89 -7  1025.1  0.4  727  295           
00 14.12.12 100 (В) 6-12  0600 м  слаб. снег  10/10 100 м 
[Ns]
-0.3 -3.7 78 -4  1027  1.6  728  294           
03 14.12.12 100 (В) 1200 м  слаб. снег{морось}  10/10 100 м 
[Ns]
-3.8 -4.2 97 -8  1028.3  1.1  729  298  -3.8       
06 14.12.12 100 (В) 0900 м  сильн. снег  ясно 100 м средняя 
[As op]
-4.2 -4.7 96 -8  1029.9  1.4  730  299  -4.5         
09 14.12.12 100 (В) 0900 м  сильн. снег  10/10 100 м 
[Ns]
-4.1 -4.6 96 -8  1030.8  0.9  730  299           
12 14.12.12 100 (В) 1500 м  сильн. снег  10/10 120 м 
[Frnb|Ns]
-4.5 -5.1 95 -9  1032.1  1.1  731  300           
15 14.12.12 100 (В) 3000 м  слаб. снег  10/10 100 м 
[Frnb|Ns]
-5.2 -5.8 96 -9  1034  1.7  732  301    -3.8     
18 14.12.12 100 (В) 7{10}  >10 км  позёмок{снег}  10/10 300 м 
[Sc]
-6.1 -6.8 95 -11  1034.9  0.7  733  303           
21 14.12.12 100 (В) >10 км  позёмок  10/10 270 м 
[St]
-7.5 -8.4 93 -13  1036  0.7  733  305           
00 15.12.12 110 (В) 7-10{11}  10 км  слаб. снег  10/10 200 м 
[Ns]
-8.2 -9.1 93 -14  1036.5  0.3  734  306           
03 15.12.12 100 (В) 10 км  слаб. снег  10/10 200 м 
[Ns]
-8.2 -9.1 93 -14  1036.4  0.1  734  306  -8.2    0.0     
06 15.12.12 090 (В) 8-10  10 км  позёмок{снег}  10/10 210 м 
[St]
-8 -8.9 93 -14  1037.2  0.8  734  306           
09 15.12.12 090 (В) 9-10  4000 м  слаб. снег  10/10 330 м 
[Ns]
-8 -9 93 -14  1037.1  0.1  734  306           
12 15.12.12 090 (В) 9-11  4000 м  слаб. снег  10/10 360 м 
[Ns]
-8.3 -9.2 93 -15  1036.9  -0.2  734  306           
15 15.12.12 090 (В) 2000 м  снег  10/10 200 м 
[Ns]
-8.6 -9.4 94 -15  1037.2  0.2  734  306    -7.4  0.4     
18 15.12.12 090 (В) 11-13  2000 м  снег  10/10 270 м 
[Ns]
-9.6 -10.6 93 -17  1037.4  0.1  734  308           
21 15.12.12 090 (В) 9-12{14}  1200 м  снег  10/10 210 м 
[Ns]
-11 -12.1 92 -18  1037.3  -0.4  734  309           
00 16.12.12 100 (В) 9-13  2000 м  снег  10/10 330 м 
[Ns]
-11.6 -12.8 91 -19  1036.5  -0.8  733  310           
03 16.12.12 080 (В) 10  2500 м  слаб. снег  10/10 200 м 
[Ns]
-12.3 -13.6 90 -20  1035.9  -0.8  733  310  -12.4    0.3     
06 16.12.12 100 (В) 9-13  2000 м  снег  10/10 330 м 
[Ns]
-11.6 -12.8 91 -19  1036.5  -0.8  733  310           
09 16.12.12 080 (В) 9-11  1200 м  метель  10/6 210 м 
[St]
-11.5 -12.8 90 -19  1034.8  -0.8  732  309           
12 16.12.12 080 (В) 10-13  1500 м  метель  10/8 200 м средняя 
[St|Ac und]
-11.6 -12.8 91 -19  1034  -0.8  731  309           
15 16.12.12 080 (В) 10  1800 м  метель  10/8 300 м средняя 
[St|Ac und]
-11.5 -12.7 91 -19  1033.7  -0.3  731  309    -11.3  0.0     
18 16.12.12 090 (В) 10-12  4000 м  метель  10/6 360 м средняя 
[St|Ac und]
-11.4 -12.5 91 -19  1032.9  -0.6  731  308           
21 16.12.12 090 (В) 8-10{12}  10 км  позёмок  10/8 360 м средняя 
[St|Ac und]
-12.7 -14 90 -20  1032.1  -1  730  310           
00 17.12.12 100 (В) 7{11}  10 км  позёмок  10/8 300 м средняя 
[St|Ac und]
-12.8 -14.1 90 -19  1031.6  -0.5  729  310           
03 17.12.12 100 (В) >10 км  позёмок  10/8 300 м средняя 
[St|Ac und]
-12.3 -13.5 91 -19  1030.6  -0.8  729  309  -12.9         
06 17.12.12 090 (В) 6{10}  4000 м  снежные зёрна  10/10 270 м 
[St]
-12.6 -13.9 90 -18  1030.4  -0.3  729  309           
09 17.12.12 100 (В) 7{10}  10 км  позёмок{снег}  10/8 300 м средняя 
[St|Ac und]
-11 -12.1 92 -17  1029  -1  728  307           
12 17.12.12 080 (В) 7{10}  10 км  позёмок{снег}  10/8 330 м средняя 
[St|Ac und]
-11.4 -12.7 90 -18  1028.5  -0.5  728  307           
15 17.12.12 090 (В) 10 км  позёмок  10/6 300 м средняя 
[St|Ac und]
-13.4 -14.7 90 -20  1029.3  0.3  728  310    -10.6  0.0     
18 17.12.12 100 (В) 9-12  10 км  позёмок  10/8 360 м средняя 
[St|Ac As]
-11.7 -12.9 91 -19  1028.6  -0.3  728  307           
21 17.12.12 100 (В) 8{12}  10 км  позёмок  10/8 240 м средняя 
[St|Ac und]
-11 -12.1 92 -18  1027.2  -1.2  727  306           
00 18.12.12 100 (В) 7{10}  10 км  позёмок  10/6 270 м средняя 
[St|Ac und]
-11.3 -12.4 91 -17  1027.2  -0.2  726  306           
03 18.12.12 090 (В) 10 км  позёмок  10/6 300 м средняя 
[St|Ac und]
-10.9 -12 91 -17  1026.2  -0.2  726  306  -13.4         
06 18.12.12 100 (В) 9-12  10 км  позёмок  10/6 420 м средняя 
[St|Ac und]
-8.9 -9.9 93 -15  1026.1  0.3  726  303           
09 18.12.12 090 (В) 11-13  10 км  позёмок  10/6 500 м средняя 
[Sc|Ac und]
-7.3 -8.2 93 -14  1026.2  0.4  727  302           
12 18.12.12 090 (В) 10-15{14}  0800 м  сильная метель  ?/?  
-8.2 -9.1 93 -15  1026.8  0.2  727  303           
15 18.12.12 080 (В) 9-14  0600 м  сильная метель  ?/?  
-8.1 -9 93 -15  1028.7  1.5  728  303    -7.2       
18 18.12.12 090 (В) 10-12  2000 м  метель  10/10 360 м 
[Sc]
-8.7 -9.6 93 -16  1028.9  728  304           
21 18.12.12 100 (В) 9-10{11}  2000 м  метель  10/10 240 м 
[St]
-9.2 -10.1 93 -16  1028.6  -0.4  728  304           
00 19.12.12 100 (В) 7-13  2500 м  метель  10/10 240 м 
[St]
-9.5 -10.5 92 -15  1028.6  0.1  728  305           
03 19.12.12 100 (В) 10  10 км  позёмок  10/10 100 м 
[Sc]
-7.7 -8.5 94 -14  1027.7  -0.4  728  302  -9.7         
06 19.12.12 100 (В) 11-14  10 км  позёмок  10/10 210 м 
[St]
-7.5 -8.4 93 -14  1026.8  -0.8  727  302           
09 19.12.12 100 (В) 9-13  10 км  позёмок  10/8 400 м средняя 
[Sc|Ac und]
-7.3 -8.2 93 -14  1026.1  -0.6  726  302           
12 19.12.12 090 (В) 10-13  10 км  позёмок  10/8 420 м средняя 
[Sc|Ac und]
-8.9 -9.9 93 -16  1025.2  -1.2  726  303           
15 19.12.12 080 (В) 10  2000 м  метель  10/8 300 м средняя 
[Sc|Ac und]
-9.9 -11 91 -17  1025.7  726  304    -7.1       
18 19.12.12 090 (В) 9-12  3000 м  слаб. снег  10/10 420 м 
[Sc]
-10.2 -11.2 92 -17  1024.8  -0.9  725  304           
21 19.12.12 070 (В) 8-10{13}  10 км  позёмок{снег}  10/8 180 м средняя 
[St|Ac und]
-9.6 -10.6 93 -16  1024.3  -0.3  725  304           
00 20.12.12 800 () 8-10{12}  1500 м  слаб. снег  10/10 210 м 
[Ns]
-8.8 -9.8 92 -15  1023.2  -0.8  724  302           
03 20.12.12 080 (В) 8-10{11}  1500 м  сильн. снег  10/10 120 м 
[Ns]
-8.2 -9 94 -14  1022.2  -0.8  724  301  -10.2    0.5  неравномерный
сухой снег
100% 
06 20.12.12 080 (В) 8-10{10}  1100 м  метель{снег}  10/10 120 м 
[Ns]
-7.7 -8.5 94 -14  1021.7  -0.3  723  301           
09 20.12.12 080 (В) 8{10}  4000 м  метель  10/10 180 м 
[Ns]
-7.4 -8.3 93 -13  1020.1  -1.5  722  300           
12 20.12.12 100 (В) 87-10{11}  4000 м  метель  10/10 360 м 
[Ns]
-9.7   1019.2  -1  721             
15 20.12.12 090 (В) 2000 м  метель  10/10 100 м 
[Ns]
-9.5 -10.5 92 -16  1018.6  -0.8  721  302    -7.1  0.0     
18 20.12.12 090 (В) 9-12  2000 м  метель  10/10 210 м 
[Ns]
-9.9 -11 91 -17  1018  -0.7  720  302           
21 20.12.12 080 (В) 10-12{13}  10 км  позёмок  10/8 330 м средняя 
[St|As trans]
-10.6 -11.7 92 -18  1017.3  -0.8  720  303           
00 21.12.12 080 (В) 8-10  10 км  позёмок  10/6 400 м средняя 
[St|As trans]
-10.9 -12 91 -17  1017.5  0.2  720  303           
03 21.12.12 090 (В) >10 км  позёмок  10/6 300 м средняя 
[As op]
-11 -12.2 91 -17  1016.9  -0.6  719  303  -11         
06 21.12.12 080 (В) 4000 м  слаб. снег  10/10 210 м 
[Ns]
-11.2 -12.4 91 -17  1017  719  303  -11.3         
09 21.12.12 090 (В) 10 км  позёмок{снег}  10/10 360 м 
[St]
-10.8 -12 91 -17  1015.4  -1.4  718  302           
12 21.12.12 080 (В) 4000 м  слаб. снег  10/8 270 м средняя 
[St|As op]
-11.5 -12.8 90 -18  1015.4  -0.1  718  303           
15 21.12.12 090 (В) 10 км  {снег}  10/8 600 м средняя 
[Sc|As op]
-12.2 -13.5 90 -17  1016.6  719  304    -10.8  0.3     
18 21.12.12 090 (В) 10 км  {снег}  10/6 360 м средняя 
[St|Ac und]
-12.3 -13.6 90 -17  1017.2  0.5  719  305           
21 21.12.12 100 (В) 10 км    10/6 400 м средняя 
[St|Ac und]
-12 -13.3 90 -17  1017.1  719  304           
00 22.12.12 090 (В) 10 км  слаб. снег  10/10 420 м 
[Ns]
-12.1 -13.3 91 -17  1017.7  720  305           
03 22.12.12 090 (В) 10 км  {снег}  10/6 600 м средняя 
[Sc|As op]
-11.5 -12.7 91 -16  1018.3  0.7  720  304  -12.8    0.0     
06 22.12.12 100 (В) 10 км  ледяной дождь (гололёд){снег}  10/10 400 м 
[Ns]
-10.8 -11.9 91 -14  1019.4  1.2  721  304           
09 22.12.12 120 (ЮВ) 10 км  {снег}  10/6 240 м средняя 
[St|As op]
-8.6 -9.5 93 -11  1019.6  0.6  722  301           
12 22.12.12 130 (ЮВ) 10 км  в посл. час снег  10/10 330 м 
[St]
-7.1 -7.9 94 -9  1019.4  -0.1  722  299           
15 22.12.12 170 (Ю) 10 км  слаб. снег  10/10 200 м 
[St]
-6.2 -6.9 95 -8  1020.4  -0.1  723  299    -6.2  0.5     
18 22.12.12 180 (Ю) 4000 м  дымка{снег}  10/10 100 м 
[St]
-4.5 -5.1 95 -6  1020.1  0.1  723  297           
21 22.12.12 180 (Ю) >10 км  {снег}  10/10 200 м 
[St]
-4.5 -5.1 95 -4  1020.3  0.2  723  297           
00 23.12.12 190 (Ю) >10 км  {снег}  10/10 720 м 
[Sc|Ac und]
+0.1 -0.2 98 -2  1019.3  723  291           
03 23.12.12 290 (З) >10 км  слаб. дождь  10/6 600 м средняя 
[Sc|Ac und]
+0.1 -0.2 98 -2  1020  0.7  723  291  -6.5       
06 23.12.12 290 (З) >10 км  слаб. дождь  10/6 600 м средняя 
[Sc|Ac und]
+0.1 -0.2 98 -2  1020  0.7  723  291  -6.5       
09 23.12.12 250 (З) >10 км  слаб. ливневой снег  10/6 600 м кучево-дожд., средняя 
[Cb cap|Ac und]
-4 -4.9 93 -7  1023.4  0.6  725  297           
12 23.12.12 270 (З) 10 км  {ливн. осадки, снег}  10/5 480 м кучево-дожд., средняя 
[Cb calv|Ac und]
-3.9 -5.3 90 -6  1023.3  -0.1  725  297           
15 23.12.12 350 (С) 10 км    10/4 600 м кучево-дожд., средняя 
[Cb calv|Ac und]
-7.3 -8 95 -9  1024.4  0.3  725  301    +0.1     
18 23.12.12 160 (Ю) 2000 м  дымка  10/8 100 м кучево-дожд., средняя 
[Cb calv|Ac und]
-6.6 -7.3 95 -6  1023.6  -0.6  725  300           
21 23.12.12 040 (СВ) 2000 м  слаб. снег{туман}  10/10 120 м 
[Ns]
-8.1 -9 93 -10  1024.4  0.4  725  302           
00 24.12.12 100 (В) 2000 м  снег{туман}  10/10 180 м 
[Ns]
-8.3 -9.2 93 -11  1024.6  0.1  725  302           
03 24.12.12 050 (СВ) 2000 м  слаб. снег  10/10 300 м 
[Ns]
-9 -9.9 93 -12  1025  0.2  725  303  -9       
06 24.12.12 060 (СВ) 4000 м  слаб. снег  10/10 900 м 
[Ns]
-9.4 -10.3 93 -13  1025.9  0.8  726  304  -9.4         
09 24.12.12 060 (СВ) 4000 м  слаб. снег  10/10 270 м 
[Frnb|Ns]
-9.9 -10.9 92 -14  1027.1  727  305           
12 24.12.12 080 (В) 10 км  {снег}  10/5 300 м средняя 
[Sc|As trans]
-10.5 -11.6 92 -15  1028.2  0.9  727  306           
15 24.12.12 100 (В) >10 км  в посл. час снег  9/9 600 м 
[Sc]
-11 -12.1 92 -14  1030.1  1.6  729  307    -8.8  0.3     
18 24.12.12 110 (В) >10 км  {снег}  5/5 1000 м 
[Sc]
-12.6 -14 89 -17  1030.8  0.3  729  309           
21 24.12.12 130 (ЮВ) >10 км    ясно 
-15.3 -16.8 89 -20  1031.6  0.3  729  313           
00 25.12.12 140 (ЮВ) >10 км    5/0 верхняя 
[Ci fib]
-14.3 -15.8 88 -18  1030.8  -0.6  729  311           
03 25.12.12 130 (ЮВ) >10 км    10/0 верхняя 
[Ci fib]
-13 -14.4 89 -15  1029.8  -0.6  728  309  -15.5      15  неравномерный
сухой снег
100% 
06 25.12.12 180 (Ю) >10 км    10/8 630 м средняя 
[Sc|Ac und]
-8.3 -9.2 93 -11  1030.4  1.6  729  304           
09 25.12.12 160 (Ю) 4000 м  слаб. снег  10/10 270 м 
[Frnb|Ns]
-5.5 -6.3 94 -7  1030.4  0.5  730  301           
12 25.12.12 170 (Ю) 4000 м  слаб. снег  10/10 600 м 
[Ns]
-6.2 -7 94 -6  1031.7  1.1  731  302           
15 25.12.12 140 (ЮВ) >10 км  {снег}  9/8 600 м средняя 
[Sc|Ac As]
-5.5 -6.4 93 -9  1032.4  0.8  731  301    -4.1     
18 25.12.12 110 (В) >10 км  {снег}  3/0 средняя 
[Ac trans]
-9.6 -10.5 93 -13  1033.7  0.3  731  306           
21 25.12.12 130 (ЮВ) >10 км    8/0 средняя 
[Ac trans]
-6.5 -7.7 91 -9  1033  0.1  731  303           
00 26.12.12 180 (Ю) >10 км    ясно 
-12.9 -14.2 90 -16  1034.2  -0.3  731  310           
03 26.12.12 150 (ЮВ) >10 км    ясно 
-6.5 -7.9 90 -9  1032.4  -0.3  731  303  -13      15  неравномерный
сухой снег
100% 
06 26.12.12 140 (ЮВ) >10 км    6/0 верхняя 
[Ci fib]
-6 -7.7 88 -9  1031.9  -0.3  731  302           
09 26.12.12 140 (ЮВ) >10 км    6/0 верхняя 
[Ci fib]
-4 -7.2 78 -4  1029.6  -1.7  729  299           
12 26.12.12 140 (ЮВ) >10 км    9/0 верхняя 
[Ci]
-3.6 -7.4 75 -7  1027.6  -1.8  728  298           
15 26.12.12 160 (Ю) >10 км    3/0 верхняя 
[Ci fib]
-4.7 -8.7 74 -8  1027.6  -1.8  728  299    -2.7       
18 26.12.12 180 (Ю) >10 км    4/0 верхняя 
[Ci fib]
-4.7 -9.3 70 -6  1026.5  -1  727  299           
21 26.12.12 250 (З) >10 км    3/0 верхняя 
[Ci fib]
+1.7 -10.2 41 +2  1024.9  -0.3  727  292           
00 27.12.12 тихо ()   >10 км    4/0 верхняя 
[Ci fib]
+0.9 -9 48 +1  1024.2    726  293           
03 27.12.12 200 (Ю) >10 км    3/0 средняя, верхняя 
[Ac trans|Ci fib]
-0.4 -9.9 49 -1  1024.1  -0.4  726  294  -5.3      15  неравномерный
сухой снег
100% 
06 27.12.12 160 (Ю) >10 км    5/0 средняя, верхняя 
[Ac trans|Ci fib]
+3.4 -7.1 46 +1  1022.3  -1  725  289           
09 27.12.12 160 (Ю) >10 км    6/0 средняя, верхняя 
[Ac trans|Ci fib]
+8.4 -5.1 38 +7  1019.7  -1.4  724  284           
12 27.12.12 150 (ЮВ) >10 км    8/0 средняя, верхняя 
[Ac trans|Ci fib]
+11 -10.8 21 +11  1018.3  -0.9  724  281           
15 27.12.12 170 (Ю) >10 км    10/0 средняя, верхняя 
[Ac trans|Ci fib]
+8.8 -6.7 33 +8  1018.1  -0.6  723  283    +11.6       
18 27.12.12 170 (Ю) >10 км    8/0 средняя, верхняя 
[Ac trans|Ci fib]
+8.9 -6.2 34 +8  1017.1  -0.9  722  282           
21 27.12.12 310 (СЗ) >10 км    10/0 средняя, верхняя 
[Ac trans|Ci fib]
+7.4 -4.5 43 +6  1018  0.6  723  284           
00 28.12.12 320 (СЗ) >10 км    10/0 средняя, верхняя 
[Ac trans|Ci fib]
+8.4 -9.1 28 +8  1018  0.2  723  283           
03 28.12.12 200 (Ю) >10 км    6/0 верхняя 
[Ci fib]
+5 -10.1 33 +5  1018.7  723  287  +3.5      неравномерный
мокрый или
старый снег
100% 
06 28.12.12 220 (ЮЗ) >10 км    9/0 верхняя 
[Ci fib]
+7.1 -10.5 27 +8  1019  0.7  724  285  +2.6         
09 28.12.12 050 (СВ) >10 км    10/0 средняя 
[Ac und]
+9.3 -8.1 28 +10  1018.4  0.1  723  283           
12 28.12.12 170 (Ю) >10 км    9/0 средняя, верхняя 
[Ac trans|Ci fib]
+6.3 -6.5 39 +6  1019  -0.1  723  286           
15 28.12.12 180 (Ю) >10 км    10/0 средняя 
[Ac und]
+5.1 -3.8 53 +5  1019.7  0.5  724  287    +10.6       
18 28.12.12 170 (Ю) >10 км    10/0 средняя 
[Ac und]
+4.5 -4.4 52 +5  1020  0.1  724  287           
21 28.12.12 тихо ()   >10 км    10/0 средняя 
[Ac und]
+3.7 -2.7 63 +4  1020.2  724  288           
00 29.12.12 тихо ()   >10 км    8/0 средняя 
[Ac trans]
+4.2 -3.4 58 +4  1020  0.1  724  288           
03 29.12.12 310 (СЗ) >10 км    8/0 средняя 
[Ac trans]
+3.2 -2.7 65 +3  1019.8  -0.4  724  288  +3.2      мокрый или
старый снег
50-90% 
06 29.12.12 310 (СЗ) >10 км    9/0 средняя 
[Ac trans]
+2.9   1020.8  0.9  724    +2.3         
09 29.12.12 350 (С) >10 км    8/0 средняя, верхняя 
[Ac trans|Ci fib]
+3.9 -0.5 73 +3  1020.2  -0.3  724  288           
12 29.12.12 тихо ()   >10 км    10/0 средняя 
[Ac und]
+3.6 -0.9 72 +4  1019.9  -0.3  724  288           
15 29.12.12 310 (СЗ) 0200 м  туман  ?/?  
+0.8 +0.5 98 -1  1021.3  0.7  724  291    +4.9       
18 29.12.12 310 (СЗ) 2000 м  слаб. снег{туман}  10/10 150 м 
[Ns]
-0.8 -1 99 -3  1022.6  0.9  725  293           
21 29.12.12 300 (СЗ) 1300 м  дымка{снег, туман}  10/10 60 м 
[Ns]
-1.7 -1.9 99 -4  1023.7  0.8  726  294           
00 30.12.12 300 (СЗ) 0600 м  туман{снег}  ?/?  
-1.9 -2.2 98 -5  1024.6  0.8  726  295           
03 30.12.12 270 (З) >10 км  {туман}  6/3 300 м средняя 
[Sc|Ac trans]
-4.5 -5.7 91 -8  1025.2  726  298  -4.5       
06 30.12.12 270 (З) 7-10  >10 км  {туман}  6/3 200 м средняя 
[St|Ac trans]
-5.1 -6.4 91 -10  1026.5  1.1  727  299  -5.6         
09 30.12.12 270 (З) 6{12}  4000 м  снежные зёрна  8/8 300 м 
[St]
-4.7 -6.4 88 -9  1026.4  727  299           
12 30.12.12 270 (З) 8-11{11}  >10 км  {снег}  3/3 300 м 
[Sc]
-4.3 -7.6 78 -9  1026.1  -0.2  727  298           
15 30.12.12 260 (З) 9-12{13}  >10 км    ясно 
-5.2 -7.6 83 -11  1026.1  0.7  727  300    -4       
18 30.12.12 250 (З) 10-14{15}  >10 км    ясно 
-5.2 -7.3 85 -11  1027.9  0.9  728  300           
21 30.12.12 240 (ЮЗ) 9-12{15}  >10 км    ясно 
-4.5 -12.6 53 -10  1027.3  -0.5  728  299           
00 31.12.12 250 (З) 10-12{13}  >10 км    3/0 средняя 
[Ac trans]
-2.8 -16.1 35 -8  1025.8  -1  727  297           
03 31.12.12 260 (З) 11  >10 км    6/0 средняя 
[Ac trans]
-2.3 -15 37 -8  1025.1  -0.6  726  296  -5.6      мокрый или
старый снег
50-90% 
06 31.12.12 270 (З) 12-16{17}  >10 км    10/3 600 м средняя 
[Sc|Ac und]
-1.1 -5.5 72 -7  1025.6  0.7  727  295           
09 31.12.12 270 (З) 10-14{18}  >10 км    10/3 600 м средняя 
[Sc|Ac und]
+0.2 -2.7 81 -5  1025.5  0.2  727  293           
12 31.12.12 260 (З) 9-13{16}  >10 км    6/0 средняя 
[Ac trans]
+1.7 -3.1 70 -2  1024.6  -0.6  727  291           
15 31.12.12 240 (ЮЗ) 7{13}  >10 км    3/0 средняя 
[Ac trans]
+0.2 -7.8 55 -4  1024.4  -0.5  726  293    +1.7       
18 31.12.12 240 (ЮЗ) >10 км    ясно 
+0.6 -7.1 56 -2  1023.3  -1.1  726  292           
21 31.12.12 260 (З) 8-11{12}  >10 км    ясно 
+1.6 -8.3 48 -2  1022.1  -0.9  725  291           
00 01.01.13 270 (З) 10-14{15}  >10 км    ясно 
+1.1 -5.6 61 -4  1021.2  -1  724  291           
03 01.01.13 270 (З) >10 км    8/5 600 м средняя 
[Sc|Ac trans]
-0 -1.6 89 -4  1021.7  0.3  724  292  -0.2      мокрый или
старый снег
50-90% 
Время (UTC), дата Ветер
(°,м/с) 
Видим.   Явления Облачность Т
(°С)
Тd
(°С)
f(%) Тe
(°С)
Pmin
(гПа)
dP
(гПа)
Po
(мм)
O2
(г/м3)
Тmin Tmax R s Состояние
почвы